FIN165 EFRO-EFOU

Flight info

Callsign FIN165
Flight time 0h 24m
Altitude 29000
Route IBSAN4B IBSAN DCT EVIMI DCT
Aircraft A320/M-SDE3FGHIRWY/LB1

Departure

Time 2026-04-28 16:51
Airport Rovaniemi Airport (EFRO)

Arrival

Time 2026-04-28 17:15
Airport Oulu Airport (EFOU)
Time Latitude Longitude Altitude Speed Heading
2026-04-28 16:17 66.55862 25.82728 632 ft 0 kts 156°
2026-04-28 16:18 66.55863 25.82728 632 ft 0 kts 156°
2026-04-28 16:25 66.55863 25.82727 632 ft 0 kts 156°
2026-04-28 16:41 66.55876 25.82712 627 ft 4 kts 156°
2026-04-28 16:41 66.55901 25.82684 626 ft 4 kts 156°
2026-04-28 16:41 66.55925 25.82657 626 ft 4 kts 168°
2026-04-28 16:41 66.55949 25.82660 631 ft 4 kts 219°
2026-04-28 16:42 66.55959 25.82697 627 ft 1 kts 258°
2026-04-28 16:42 66.55960 25.82706 627 ft 1 kts 258°
2026-04-28 16:44 66.55960 25.82704 627 ft 1 kts 258°
2026-04-28 16:44 66.55946 25.82589 635 ft 8 kts 240°
2026-04-28 16:44 66.55903 25.82483 627 ft 13 kts 220°
2026-04-28 16:45 66.55805 25.82296 627 ft 20 kts 218°
2026-04-28 16:45 66.55688 25.82070 624 ft 22 kts 218°
2026-04-28 16:45 66.55563 25.81833 622 ft 22 kts 217°
2026-04-28 16:45 66.55457 25.81633 626 ft 16 kts 217°
2026-04-28 16:46 66.55381 25.81488 632 ft 11 kts 217°
2026-04-28 16:46 66.55339 25.81371 632 ft 4 kts 248°
2026-04-28 16:46 66.55338 25.81368 632 ft 0 kts 250°
2026-04-28 16:48 66.55334 25.81302 631 ft 11 kts 269°
2026-04-28 16:48 66.55379 25.81133 634 ft 11 kts 327°
2026-04-28 16:49 66.55459 25.81100 632 ft 9 kts 15°
2026-04-28 16:49 66.55483 25.81136 632 ft 2 kts 36°
2026-04-28 16:49 66.55483 25.81137 632 ft 0 kts 36°
2026-04-28 16:50 66.55510 25.81187 631 ft 29 kts 37°
2026-04-28 16:50 66.55919 25.81963 627 ft 110 kts 37°
2026-04-28 16:51 66.56688 25.83416 774 ft 159 kts 33°
2026-04-28 16:51 66.57614 25.85161 1437 ft 170 kts 35°
2026-04-28 16:51 66.58546 25.86982 2182 ft 177 kts 34°
2026-04-28 16:51 66.59360 25.89513 2570 ft 204 kts 66°
2026-04-28 16:52 66.59304 25.93348 2860 ft 244 kts 107°
2026-04-28 16:52 66.58148 25.96733 3354 ft 271 kts 146°
2026-04-28 16:52 66.56311 25.97929 4008 ft 281 kts 183°
2026-04-28 16:52 66.54414 25.96732 4753 ft 283 kts 204°
2026-04-28 16:53 66.52636 25.94563 5710 ft 285 kts 210°
2026-04-28 16:53 66.50878 25.92206 6886 ft 289 kts 208°
2026-04-28 16:53 66.49064 25.89943 7983 ft 293 kts 206°
2026-04-28 16:53 66.47184 25.87846 9100 ft 298 kts 204°
2026-04-28 16:54 66.45242 25.85885 10213 ft 303 kts 202°
2026-04-28 16:54 66.43212 25.83981 10854 ft 323 kts 201°
2026-04-28 16:54 66.41012 25.82015 11289 ft 348 kts 200°
2026-04-28 16:54 66.39464 25.80668 11563 ft 362 kts 200°
2026-04-28 16:55 66.36214 25.77882 12627 ft 374 kts 200°
2026-04-28 16:55 66.33745 25.75761 13554 ft 378 kts 200°
2026-04-28 16:55 66.31277 25.73625 14404 ft 382 kts 200°
2026-04-28 16:55 66.28755 25.71436 15207 ft 386 kts 200°
2026-04-28 16:56 66.26202 25.69219 15963 ft 392 kts 200°
2026-04-28 16:56 66.23618 25.66974 16747 ft 396 kts 200°
2026-04-28 16:56 66.21000 25.64700 17504 ft 401 kts 200°
2026-04-28 16:56 66.18350 25.62404 18300 ft 405 kts 200°
2026-04-28 16:57 66.15677 25.60096 18974 ft 410 kts 200°
2026-04-28 16:57 66.12961 25.57758 19215 ft 412 kts 200°
2026-04-28 16:57 66.10248 25.55432 19281 ft 413 kts 199°
2026-04-28 16:57 66.07487 25.53660 19273 ft 414 kts 190°
2026-04-28 16:58 66.04620 25.52976 19283 ft 414 kts 181°
2026-04-28 16:58 66.01745 25.52827 19282 ft 414 kts 180°
2026-04-28 16:58 65.98861 25.52664 19282 ft 414 kts 181°
2026-04-28 16:58 65.95977 25.52488 19274 ft 414 kts 181°
2026-04-28 16:59 65.93091 25.52304 19273 ft 414 kts 181°
2026-04-28 16:59 65.90187 25.52118 18534 ft 421 kts 181°
2026-04-28 16:59 65.87236 25.51936 17486 ft 425 kts 181°
2026-04-28 16:59 65.84285 25.51759 16693 ft 423 kts 181°
2026-04-28 17:00 65.81360 25.51590 16007 ft 418 kts 181°
2026-04-28 17:00 65.78459 25.51420 15471 ft 416 kts 181°
2026-04-28 17:00 65.75615 25.51249 15212 ft 413 kts 181°
2026-04-28 17:00 65.72754 25.51074 14953 ft 411 kts 181°
2026-04-28 17:01 65.69900 25.50901 14691 ft 408 kts 181°
2026-04-28 17:01 65.67067 25.50734 14435 ft 408 kts 181°
2026-04-28 17:01 65.64234 25.50570 14190 ft 405 kts 181°
2026-04-28 17:01 65.61418 25.50411 13923 ft 403 kts 181°
2026-04-28 17:02 65.58626 25.50251 13644 ft 400 kts 181°
2026-04-28 17:02 65.56783 25.50143 13455 ft 400 kts 181°
2026-04-28 17:02 65.53057 25.49920 13084 ft 399 kts 181°
2026-04-28 17:02 65.50291 25.49760 12812 ft 398 kts 181°
2026-04-28 17:03 65.44775 25.49438 12271 ft 397 kts 181°
2026-04-28 17:03 65.42023 25.49273 12007 ft 394 kts 181°
2026-04-28 17:03 65.39291 25.49111 11743 ft 389 kts 181°
2026-04-28 17:04 65.33909 25.48794 11210 ft 385 kts 181°
2026-04-28 17:04 65.31236 25.48640 10946 ft 383 kts 181°
2026-04-28 17:05 65.25932 25.48345 10450 ft 380 kts 181°
2026-04-28 17:05 65.23307 25.48194 10247 ft 369 kts 181°
2026-04-28 17:05 65.20841 25.48051 10094 ft 350 kts 181°
2026-04-28 17:06 65.16215 25.47778 9815 ft 317 kts 181°
2026-04-28 17:06 65.14052 25.47652 9674 ft 305 kts 181°
2026-04-28 17:06 65.09892 25.48279 9399 ft 298 kts 162°
2026-04-28 17:07 65.07982 25.50127 9279 ft 296 kts 148°
2026-04-28 17:07 65.06308 25.52918 9143 ft 294 kts 138°
2026-04-28 17:07 65.04705 25.55916 8971 ft 293 kts 139°
2026-04-28 17:07 65.03105 25.58890 8588 ft 292 kts 139°
2026-04-28 17:08 65.01512 25.61837 8172 ft 289 kts 139°
2026-04-28 17:08 64.99933 25.64750 7766 ft 287 kts 139°
2026-04-28 17:08 64.98367 25.67628 7374 ft 284 kts 139°
2026-04-28 17:08 64.96811 25.70488 6962 ft 282 kts 139°
2026-04-28 17:09 64.95267 25.73327 6551 ft 280 kts 138°
2026-04-28 17:09 64.93733 25.76144 6139 ft 279 kts 140°
2026-04-28 17:09 64.92010 25.78251 5737 ft 282 kts 162°
2026-04-28 17:09 64.90069 25.78708 5325 ft 282 kts 185°
2026-04-28 17:10 64.88797 25.78060 4940 ft 284 kts 201°
2026-04-28 17:10 64.87105 25.75906 4518 ft 267 kts 213°
2026-04-28 17:10 64.85701 25.73422 4358 ft 240 kts 234°
2026-04-28 17:10 64.85006 25.70143 4141 ft 216 kts 265°
2026-04-28 17:11 64.85077 25.66752 3667 ft 201 kts 295°
2026-04-28 17:11 64.85694 25.63966 3166 ft 189 kts 308°
2026-04-28 17:11 64.86363 25.61373 2740 ft 180 kts 308°
2026-04-28 17:11 64.86967 25.58993 2494 ft 158 kts 309°
2026-04-28 17:12 64.87504 25.56873 2251 ft 142 kts 310°
2026-04-28 17:12 64.87984 25.54989 2015 ft 128 kts 311°
2026-04-28 17:12 64.88429 25.53255 1827 ft 121 kts 311°
2026-04-28 17:12 64.88861 25.51581 1647 ft 118 kts 311°
2026-04-28 17:13 64.89273 25.49953 1494 ft 116 kts 310°
2026-04-28 17:13 64.89682 25.48327 1344 ft 115 kts 309°
2026-04-28 17:13 64.90099 25.46727 1171 ft 115 kts 307°
2026-04-28 17:13 64.90519 25.45134 1009 ft 114 kts 310°
2026-04-28 17:14 64.90934 25.43499 799 ft 116 kts 307°
2026-04-28 17:14 64.91341 25.41862 614 ft 115 kts 310°
2026-04-28 17:14 64.91770 25.40269 388 ft 115 kts 309°
2026-04-28 17:14 64.92193 25.38635 181 ft 118 kts 307°
2026-04-28 17:15 64.92616 25.36982 50 ft 114 kts 301°
2026-04-28 17:15 64.92954 25.35664 52 ft 71 kts 300°
2026-04-28 17:15 64.93140 25.34948 52 ft 45 kts 304°
2026-04-28 17:15 64.93275 25.34396 51 ft 27 kts 303°
2026-04-28 17:16 64.93374 25.34121 53 ft 18 kts 322°
2026-04-28 17:16 64.93474 25.34065 51 ft 7 kts 11°
2026-04-28 17:16 64.93522 25.34161 51 ft 12 kts 74°
2026-04-28 17:16 64.93476 25.34388 51 ft 19 kts 120°
2026-04-28 17:17 64.93398 25.34698 51 ft 25 kts 120°
2026-04-28 17:17 64.93303 25.35087 50 ft 30 kts 120°
2026-04-28 17:17 64.93189 25.35535 51 ft 34 kts 122°
2026-04-28 17:17 64.93075 25.35962 50 ft 27 kts 122°
2026-04-28 17:18 64.92973 25.36356 51 ft 29 kts 121°
2026-04-28 17:18 64.92921 25.36563 51 ft 10 kts 121°
2026-04-28 17:18 64.92883 25.36709 51 ft 10 kts 121°
2026-04-28 17:18 64.92846 25.36854 49 ft 10 kts 121°
2026-04-28 17:19 64.92810 25.36995 51 ft 10 kts 121°
2026-04-28 17:19 64.92775 25.37135 49 ft 10 kts 121°
2026-04-28 17:19 64.92732 25.37302 51 ft 14 kts 122°
2026-04-28 17:19 64.92743 25.37410 49 ft 8 kts 36°
2026-04-28 17:20 64.92780 25.37458 49 ft 2 kts 30°
2026-04-28 17:46 64.92780 25.37457 49 ft 0 kts 30°
2026-04-28 17:52 64.92779 25.37457 49 ft 0 kts 30°